Regional Weather Roundup
Issued by NWS

Home | Current Version | Previous Version | Graphics & Text | Print | Product List | Glossary On
Versions: 1 2 3 4 5 6 7 8 9 10 11 12 13 14 15 16 17 18 19 20 21 22 23 24 25 26 27 28 29 30 31 32 33 34 35 36 37 38 39 40 41 42 43 44 45 46 47 48 49 50
000
ASUS43 KIND 171159
RWRIN

WEATHER ROUNDUP FOR INDIANA
NATIONAL WEATHER SERVICE INDIANAPOLIS IN
800 AM EDT WED SEP 17 2014

NOTE: "FAIR" INDICATES FEW OR NO CLOUDS BELOW 12,000 FEET WITH NO
SIGNIFICANT WEATHER AND/OR OBSTRUCTIONS TO VISIBILITY.

* - STATION DOES NOT REPORT WEATHER SUCH AS PRECIPITATION OR FOG.

+ - STATION NOT QUALITY CONTROLLED BY THE NATIONAL WEATHER SERVICE.
    USE DATA WITH CAUTION...ESPECIALLY DEWPOINT AND RELATIVE
    HUMIDITY OBSERVATIONS.

INZ001>003-010>013-019-020-171300-
NORTHWEST INDIANA

CITY           SKY/WX    TMP DP  RH WIND       PRES   REMARKS
GARY /AIRPORT/ MOCLDY    45  43  93 S5        30.07R
KNOX *+        CLEAR     41  40  95 CALM      30.07R
VALPARAISO     FOG       43  41  93 CALM      30.07S VSB<1/4
6HR MIN TEMP:  41; 6HR MAX TEMP:  46;


$$

LMZ046-743>745-171300-
SOUTHERN LAKE MICHIGAN

STATION/POSITION TIME  TEMP WIND        PRES
                       AIR  DIR/SP/G
                 (UTC) (F)  (DEG/KT/KT) (MB)
MICHIGAN CITY    1100   50  130/ 10/ 11   N/A

$$

INZ004-005-014>016-021>024-171300-
NORTH CENTRAL INDIANA

CITY           SKY/WX    TMP DP  RH WIND       PRES   REMARKS
ELKHART        CLEAR     41  41 100 CALM      30.08R
GOSHEN         PTCLDY    43  41  93 CALM      30.07S
6HR MIN TEMP:  41; 6HR MAX TEMP:  46;

SOUTH BEND     PTCLDY    45  41  86 CALM      30.08R
6HR MIN TEMP:  42; 6HR MAX TEMP:  46;

WARSAW +       MOCLDY    41  41 100 CALM      30.07S FOG

$$

INZ006>009-017-018-025>027-171300-
NORTHEAST INDIANA

CITY           SKY/WX    TMP DP  RH WIND       PRES   REMARKS
ANGOLA *+      CLEAR     41  41 100 CALM      30.08R
FORT WAYNE     MOCLDY    44  42  93 CALM      30.09R
6HR MIN TEMP:  42; 6HR MAX TEMP:  47;


$$

INZ028-029-035-036-043>045-051>053-171300-
WEST CENTRAL INDIANA

CITY           SKY/WX    TMP DP  RH WIND       PRES   REMARKS
GREENCASTLE +    N/A     45  45 100 CALM      30.08S FOG
LAFAYETTE      FOG       43  43 100 CALM      30.08R VSB<1/4
6HR MIN TEMP:  42; 6HR MAX TEMP:  46;

TERRE HAUTE    FOG       44  43  96 CALM      30.08S VSB 1/4
6HR MIN TEMP:  43; 6HR MAX TEMP:  46;


$$

INZ030>032-037>040-046>048-054>057-064-065-171300-
CENTRAL INDIANA

CITY           SKY/WX    TMP DP  RH WIND       PRES   REMARKS
FRANKFORT +      N/A    N/A N/A N/A CALM      30.08S FOG
INDIANAPOLIS   PTCLDY    48  46  93 CALM      30.07S FOG
6HR MIN TEMP:  45; 6HR MAX TEMP:  51;

-EAGLE CREEK   CLEAR     47  45  93 CALM      30.07S FOG
6HR MIN TEMP:  46; 6HR MAX TEMP:  50;

KOKOMO *+        N/A     45  43  93 CALM      30.08S VSB 1/2
MT COMFORT *+  CLOUDY    41 N/A N/A CALM      30.08F VSB 1/4
SHELBYVILLE    FOG       44  42  93 E3        30.08R VSB 1/4
6HR MIN TEMP:  43; 6HR MAX TEMP:  47;

ZIONSVILLE +   FOG       43  40  91 CALM      30.08S VSB<1/4
6HR MIN TEMP:  42; 6HR MAX TEMP:  47;


$$

INZ033-034-041-042-049-050-058-059-171300-
EAST CENTRAL INDIANA

CITY           SKY/WX    TMP DP  RH WIND       PRES   REMARKS
MUNCIE         CLEAR     42  41  96 CALM      30.08S FOG
6HR MIN TEMP:  41; 6HR MAX TEMP:  48;


$$

INZ060-061-067>069-081>083-085>088-171300-
SOUTHWEST INDIANA

CITY           SKY/WX    TMP DP  RH WIND       PRES   REMARKS
EVANSVILLE     CLEAR     46  44  93 CALM      30.07S FOG
6HR MIN TEMP:  46; 6HR MAX TEMP:  50;


$$

INZ062-063-066-070>080-084-089>092-171300-
SOUTH CENTRAL AND SOUTHEAST INDIANA

CITY           SKY/WX    TMP DP  RH WIND       PRES   REMARKS
BLOOMINGTON    PTCLDY    43  41  93 CALM      30.08S FOG
6HR MIN TEMP:  42; 6HR MAX TEMP:  47;


$$




USA.gov is the U.S. government's official web portal to all federal, state and local government web resources and services.